CW5398 Weather Reports


Display with metric or nautical units.
time (UTC)temp
F
wind
direction
speed
MPH
gust
MPH
rain 1hr
in
rain 24hr
in
rain mn
in
humidity
%
barometer
mb
20260901164536 56 286 0.0 0.0 0.00 0.00 0.00 92 1009.1
20260901163536 56 293 1.0 3.0 0.00 0.00 0.00 94 1009.0
20260901162536 56 286 0.0 0.0 0.00 0.00 0.00 96 1009.0
20260901161536 56 293 0.0 2.0 0.00 0.00 0.00 97 1009.0
20260901160516 55 286 0.0 0.0 0.00 0.00 0.00 97 1009.0
20260901155516 55 293 0.0 1.0 0.00 0.00 0.00 98 1009.0
20260901154536 55 293 1.0 4.0 0.00 0.00 0.00 98 1009.0
20260901153516 54 286 0.0 0.0 0.00 0.00 0.00 98 1008.8
20260901152516 54 286 0.0 0.0 0.00 0.00 0.00 98 1008.7
20260901151516 53 286 0.0 0.0 0.00 0.00 0.00 98 1008.7
20260901150516 53 286 0.0 0.0 0.00 0.00 0.00 98 1008.6
20260901145516 52 286 0.0 0.0 0.00 0.00 0.00 97 1008.6
20260901144516 52 286 0.0 0.0 0.00 0.00 0.00 97 1008.6
20260901143516 51 286 0.0 0.0 0.00 0.00 0.00 97 1008.6
20260901142536 51 286 0.0 0.0 0.00 0.00 0.00 97 1008.6
20260901141515 51 286 0.0 0.0 0.00 0.00 0.00 97 1008.6
20260901140515 51 286 0.0 0.0 0.00 0.00 0.00 97 1008.5
20260901135515 51 286 0.0 0.0 0.00 0.00 0.00 97 1008.4
20260901134515 51 286 0.0 0.0 0.00 0.00 0.00 97 1008.4
20260901133515 51 286 0.0 0.0 0.00 0.00 0.00 97 1008.3
20260901132515 50 286 0.0 0.0 0.00 0.00 0.00 96 1008.2
20260901131516 50 286 0.0 0.0 0.00 0.00 0.00 96 1008.2
20260901130516 50 286 0.0 0.0 0.00 0.00 0.00 96 1008.2
20260901125516 50 286 0.0 0.0 0.00 0.00 0.00 96 1008.3
20260901124535 50 286 0.0 0.0 0.00 0.00 0.00 96 1008.3
20260901123516 50 286 0.0 0.0 0.00 0.00 0.00 96 1008.2
20260901122516 50 286 0.0 0.0 0.00 0.00 0.00 96 1008.2
20260901121535 50 286 0.0 0.0 0.00 0.00 0.00 95 1008.2
20260901120515 50 286 0.0 0.0 0.00 0.00 0.00 95 1008.1
20260901115515 50 286 0.0 0.0 0.00 0.00 0.00 95 1008.2
20260901114516 50 286 0.0 0.0 0.00 0.00 0.00 96 1008.2
20260901113516 50 286 0.0 0.0 0.00 0.00 0.00 95 1008.2
20260901112515 51 286 0.0 0.0 0.00 0.00 0.00 95 1008.1
20260901111515 51 286 0.0 0.0 0.00 0.00 0.00 95 1008.1
20260901110515 50 286 0.0 0.0 0.00 0.00 0.00 95 1008.4
20260901105515 51 286 0.0 0.0 0.00 0.00 0.00 95 1008.5
20260901104515 51 286 0.0 0.0 0.00 0.00 0.00 95 1008.5
20260901103516 51 286 0.0 0.0 0.00 0.00 0.00 95 1008.3
20260901102517 51 286 0.0 0.0 0.00 0.00 0.00 94 1008.5
20260901101517 51 286 0.0 0.0 0.00 0.00 0.00 94 1008.5
20260901100517 51 286 0.0 0.0 0.00 0.00 0.00 94 1008.6
20260901095517 51 286 0.0 0.0 0.00 0.00 0.00 93 1008.5
20260901094515 51 286 0.0 0.0 0.00 0.00 0.00 93 1008.5
20260901093517 51 286 0.0 0.0 0.00 0.00 0.00 93 1008.4
20260901092517 51 286 0.0 0.0 0.00 0.00 0.00 93 1008.5
20260901091537 51 286 0.0 0.0 0.00 0.00 0.00 93 1008.5
20260901090517 52 286 0.0 0.0 0.00 0.00 0.00 93 1008.4
20260901085537 52 286 0.0 0.0 0.00 0.00 0.00 93 1008.2
20260901084537 52 286 0.0 0.0 0.00 0.00 0.00 92 1008.2
20260901083517 52 286 0.0 0.0 0.00 0.00 0.00 92 1008.1
20260901082557 52 286 0.0 0.0 0.00 0.00 0.00 92 1008.1
20260901081517 52 286 0.0 0.0 0.00 0.00 0.00 92 1008.1
20260901080517 52 286 0.0 0.0 0.00 0.00 0.00 91 1008.1
20260901075517 53 286 0.0 0.0 0.00 0.00 0.00 91 1008.1
20260901074517 53 286 0.0 0.0 0.00 0.00 0.00 91 1008.1
20260901073517 53 286 0.0 0.0 0.00 0.00 0.00 91 1008.1
20260901072517 53 286 0.0 0.0 0.00 0.00 0.00 91 1008.1
20260901071517 53 286 0.0 0.0 0.00 0.00 0.00 91 1008.1
20260901070517 53 286 0.0 0.0 0.00 0.00 0.00 90 1008.1
20260901065537 54 286 0.0 0.0 0.00 0.00 0.00 90 1008.3
20260901064536 54 286 0.0 0.0 0.00 0.00 0.00 90 1008.3
20260901063536 54 286 0.0 0.0 0.00 0.00 0.00 89 1008.2
20260901062517 54 286 0.0 0.0 0.00 0.00 0.00 89 1008.5
20260901061536 54 286 0.0 0.0 0.00 0.00 0.00 89 1008.5
20260901060517 55 286 0.0 0.0 0.00 0.00 0.00 88 1008.6
20260901055517 55 286 0.0 0.0 0.00 0.00 0.00 87 1008.6
20260901054516 55 286 0.0 0.0 0.00 0.00 0.00 87 1008.6
20260901053517 56 286 0.0 0.0 0.00 0.00 0.00 87 1008.6
20260901052617 56 286 0.0 0.0 0.00 0.00 0.00 86 1008.6
20260901051516 56 286 0.0 0.0 0.00 0.00 0.00 85 1008.6
20260901050516 56 286 0.0 0.0 0.00 0.00 0.00 85 1008.5
20260901045516 57 286 0.0 0.0 0.00 0.00 0.00 85 1008.5
20260901044536 57 286 0.0 0.0 0.00 0.00 0.00 84 1008.5
20260901043516 58 286 0.0 0.0 0.00 0.00 0.00 84 1008.5
20260901042516 58 286 0.0 0.0 0.00 0.00 0.00 84 1008.5
20260901041556 58 286 0.0 0.0 0.00 0.00 0.00 83 1008.5
20260901040536 59 286 0.0 0.0 0.00 0.00 0.00 82 1008.5
20260901035516 59 286 0.0 0.0 0.00 0.00 0.00 81 1008.5
20260901034516 60 286 0.0 0.0 0.00 0.00 0.00 80 1008.5
20260901033516 60 286 0.0 0.0 0.00 0.00 0.00 78 1008.4
20260901032516 61 286 0.0 0.0 0.00 0.00 0.00 77 1008.4
20260901031536 62 286 0.0 0.0 0.00 0.00 0.00 74 1008.5
20260901030516 63 286 0.0 0.0 0.00 0.00 0.00 73 1008.4
20260901025526 64 293 0.0 2.0 0.00 0.00 0.00 71 1008.5
20260901024536 65 286 0.0 0.0 0.00 0.00 0.00 70 1008.5
20260901023536 66 286 0.0 0.0 0.00 0.00 0.00 68 1008.5
20260901022516 66 286 0.0 0.0 0.00 0.00 0.00 65 1008.6
20260901021516 66 286 0.0 0.0 0.00 0.00 0.00 64 1008.6
20260901020516 67 293 0.0 1.0 0.00 0.00 0.00 62 1008.6
20260901015516 66 293 0.0 1.0 0.00 0.00 0.00 62 1008.7
20260901014516 66 286 0.0 0.0 0.00 0.00 0.00 62 1008.7
20260901013516 66 293 0.0 2.0 0.00 0.00 0.00 62 1008.7
20260901012516 66 293 0.0 3.0 0.00 0.00 0.00 61 1009.0
20260901011515 66 293 0.0 1.0 0.00 0.00 0.00 62 1009.0
20260901010516 67 293 0.0 1.0 0.00 0.00 0.00 60 1009.0
20260901005515 67 293 0.0 3.0 0.00 0.00 0.00 61 1009.1
20260901004516 67 293 0.0 3.0 0.00 0.00 0.00 58 1009.1
20260901003515 68 293 1.0 5.0 0.00 0.00 0.00 60 1009.1
20260901002516 68 293 1.0 5.0 0.00 0.00 0.00 61 1009.4
20260901001516 68 293 1.0 5.0 0.00 0.00 0.00 61 1009.4
20260901000515 68 293 1.0 5.0 0.00 0.00 0.00 61 1009.4
20260831235515 69 293 0.0 3.0 0.00 0.00 0.00 59 1009.6
20260831234516 69 293 1.0 3.0 0.00 0.00 0.00 57 1009.6
20260831233555 69 293 0.0 1.0 0.00 0.00 0.00 59 1009.7
20260831232516 69 293 0.0 1.0 0.00 0.00 0.00 58 1009.8
20260831231516 69 293 0.0 3.0 0.00 0.00 0.00 54 1009.8
20260831230515 69 293 2.0 6.0 0.00 0.00 0.00 55 1010.0
20260831225555 70 293 1.0 3.0 0.00 0.00 0.00 56 1010.2
20260831224515 70 293 1.0 7.0 0.00 0.00 0.00 54 1010.2
20260831223515 71 293 1.0 5.0 0.00 0.00 0.00 53 1010.2
20260831221535 71 293 1.0 5.0 0.00 0.00 0.00 55 1010.5
20260831220515 71 315 2.0 6.0 0.00 0.00 0.00 54 1010.7
20260831215516 71 315 1.0 6.0 0.00 0.00 0.00 54 1010.9
20260831214515 72 315 1.0 4.0 0.00 0.00 0.00 52 1010.9
20260831213517 71 315 1.0 5.0 0.00 0.00 0.00 56 1011.2
20260831212517 70 315 2.0 7.0 0.00 0.00 0.00 55 1011.3
20260831211517 71 315 2.0 6.0 0.00 0.00 0.00 54 1011.3
20260831210517 72 315 2.0 7.0 0.00 0.00 0.00 52 1011.3
20260831205517 72 315 1.0 5.0 0.00 0.00 0.00 53 1011.5
20260831204517 70 315 1.0 7.0 0.00 0.00 0.00 55 1011.5
20260831203537 70 315 1.0 5.0 0.00 0.00 0.00 58 1011.7
20260831202517 69 315 0.0 1.0 0.00 0.00 0.00 57 1011.8
20260831201557 69 315 0.0 3.0 0.00 0.00 0.00 60 1011.8
20260831200517 68 315 1.0 6.0 0.00 0.00 0.00 59 1012.1
20260831195517 68 315 1.0 6.0 0.00 0.00 0.00 60 1012.1
20260831194537 67 315 1.0 5.0 0.00 0.00 0.00 59 1012.1
20260831193517 67 315 0.0 3.0 0.00 0.00 0.00 62 1012.3
20260831192517 67 315 0.0 1.0 0.00 0.00 0.00 61 1012.6
20260831191517 67 315 1.0 5.0 0.00 0.00 0.00 63 1012.6
20260831190517 66 315 0.0 5.0 0.00 0.00 0.00 63 1012.8
20260831185537 66 315 2.0 7.0 0.00 0.00 0.00 65 1012.8
20260831184537 66 293 1.0 5.0 0.00 0.00 0.00 66 1012.8
20260831183517 65 293 1.0 4.0 0.00 0.00 0.00 68 1012.9
20260831182517 64 293 1.0 5.0 0.00 0.00 0.00 66 1013.2
20260831181517 64 293 1.0 6.0 0.00 0.00 0.00 67 1013.2
20260831180536 64 293 1.0 5.0 0.00 0.00 0.00 70 1013.3
20260831175516 63 293 1.0 4.0 0.00 0.00 0.00 73 1013.4
20260831174516 62 293 1.0 4.0 0.00 0.00 0.00 74 1013.4
20260831173516 62 293 2.0 6.0 0.00 0.00 0.00 77 1013.4
20260831172516 61 293 1.0 3.0 0.00 0.00 0.00 79 1013.7
20260831171516 61 293 1.0 5.0 0.00 0.00 0.00 83 1013.7
20260831170516 60 293 0.0 3.0 0.00 0.00 0.00 85 1013.8
20260831165516 59 293 0.0 1.0 0.00 0.00 0.00 92 1013.8